sat.trackr.live / text

‹ back to catalog

TURKSAT 5B

NORAD 50212 · 2021-126A

PAYLOAD ACTIVE UNKNOWN

§ Identity

Operator
Country
TURK
Launch date
2021-12-19
Launch site
AFETR
Launch vehicle
Mass (kg)
RCS (m²)

Purposes: comms

External: N2YO · Heavens-Above · Gunter

§ Orbital elements

Epoch: 2026-05-25T03:56:38.608800Z

Period
1,436.09 min
Inclination
0.0687°
Eccentricity
0.0004200
Mean motion
1.00272517 rev/d
Perigee alt
35,768.7 km
Apogee alt
35,804.1 km
Semi-major
42,164.5 km
B*
0.0000e+0
RAAN
341.5128°
Arg perigee
12.6477°
Mean anomaly
349.7415°
Rev number
1,606

§ Raw data

TURKSAT 5B1 50212U 21126A   26145.16433575  .00000144  00000+0  00000+0 0  99912 50212   0.0687 341.5128 0004200  12.6477 349.7415  1.00272517 16061

JSON: /api/v1/satellites/50212 · /tle

For live sub-satellite position, see the globe view (requires WebGL).

§ Visibility from observer

Set your observer location to see the next 7 days of passes ≥ 10°. The values pass through the URL so the page stays shareable.

No JS? Fill the form by hand. The geolocation button needs JavaScript.